[[{"header":{"parameterUnit":"m.s-1","parameterCategory":1,"la1":30.2991,"la2":30.254,"lo1":-89.0895,"lo2":-89.0444,"dy":0.0017,"dx":0.0017,"nx":28,"ny":28,"refTime":"2025-07-29T21:00:00:Z","depth":0,"parameterNumber":2,"parameterNumberName":"U-component_of_WINDS"},"data":[0,0,0,0,0,0,0,0,0,0,0,0,0,0,0,0,0,0,0,0,0,0,0,0,0,0,0,0,0,0,0,0,0,0,0,0,0,0,0,0,0,0,0,0,0,0,0,0,0,0,0,0,0,0,0,0,0,0,3.4165,3.4167,0,3.4282,3.4283,3.4285,3.4294,3.4293,3.4292,3.429,3.4413,3.4417,3.4422,0,0,0,0,0,0,0,0,0,0,0,0,0,3.3957,3.3961,3.4165,3.4167,3.4168,3.4282,3.4283,3.4285,3.4294,3.4293,3.4291,3.429,3.4411,3.4417,3.4422,0,0,0,0,0,0,0,0,0,0,0,0,0,3.4058,3.3962,3.4165,3.4187,3.419,3.4281,3.4283,3.4285,3.4295,3.4293,3.4291,3.4289,3.441,3.4416,3.4423,3.4502,0,0,3.4443,3.4446,0,0,0,0,0,0,0,0,3.4052,3.4066,3.4182,3.4185,3.4189,3.4272,3.4255,3.4358,3.4295,3.4255,3.429,3.4288,3.4368,3.4378,3.4404,3.4508,3.4513,3.4444,3.4448,3.4451,3.4452,0,0,0,0,0,0,0,3.4045,3.4061,3.4212,3.4184,3.4188,3.4192,3.4205,3.4275,3.4321,3.4258,3.4259,3.4273,3.4369,3.4397,3.4407,3.4515,3.4444,3.4449,3.4454,3.4456,3.4694,3.4697,0,0,0,0,0,0,3.4034,3.4055,3.4208,3.4215,3.4114,3.4198,3.4211,3.4247,3.432,3.4329,3.4274,3.4273,3.4387,3.4399,3.4411,3.451,3.4451,3.4457,3.4461,3.4692,3.4695,3.4697,0,0,0,0,0,0,3.4029,3.4047,3.4203,3.4135,3.4156,3.4203,3.4243,3.425,3.4278,3.4332,3.4341,3.4294,3.4386,3.4402,3.448,3.4515,3.446,3.4466,3.4689,3.4693,3.4696,3.4709,0,0,0,0,0,0,3.4023,3.4045,3.4074,3.4136,3.4159,3.4268,3.4245,3.4254,3.4289,3.4288,3.4353,3.4362,3.4386,3.447,3.4487,3.4523,3.4471,3.4686,3.4691,3.4695,3.4705,3.4712,3.4718,0,0,0,0,0,3.4015,3.4073,3.4075,3.4094,3.4196,3.427,3.4283,3.4309,3.4292,3.4323,3.4358,3.436,3.4509,3.4478,3.4497,3.4536,3.4684,3.469,3.4695,3.4702,3.4711,3.4718,0,0,0,0,0,0,3.4013,3.4081,3.4085,3.4163,3.4211,3.4271,3.431,3.4316,3.437,3.4367,3.4398,3.4412,3.449,3.4521,3.4486,3.4619,3.4595,3.4604,3.4595,3.4603,3.4609,3.4599,3.4477,0,0,0,0,0,3.4022,3.4075,3.4132,3.4196,3.422,3.4261,3.4294,3.431,3.4361,3.4381,3.4422,3.4473,3.4532,3.4569,3.4626,3.4711,3.4727,3.4748,3.4754,3.4759,3.4766,3.4817,3.4827,3.4715,3.4715,3.4715,0,0,3.404,3.4084,3.4115,3.4197,3.4235,3.4292,3.4278,3.4337,3.438,3.4391,3.4467,3.45,3.4559,3.4641,3.468,3.467,3.4801,3.4766,3.4769,3.4774,3.4823,3.4834,3.4843,3.4718,3.4718,3.4717,0,0,3.4101,3.4139,3.4198,3.4238,3.4297,3.4325,3.434,3.4401,3.4423,3.45,3.4511,3.4564,3.4663,3.4706,3.474,3.4825,3.4829,3.4843,3.4875,3.4924,3.4932,3.494,3.4972,3.4982,3.485,3.485,3.485,0,3.4116,3.42,3.4227,3.4288,3.4324,3.4338,3.44,3.4438,3.4513,3.4539,3.4527,3.4655,3.4695,3.4789,3.481,3.4838,3.4857,3.4834,3.4929,3.4937,3.4945,3.4975,3.4987,3.4851,3.4851,3.4851,3.4851,0,3.4216,3.4275,3.4316,3.4388,3.443,3.4491,3.453,3.457,3.4584,3.4614,3.4695,3.4745,3.4814,3.4838,3.4852,3.4936,3.4928,3.4922,3.4899,3.4956,3.4985,3.4997,3.4853,3.4853,3.4852,3.4852,0,0,3.4274,3.4365,3.438,3.4415,3.4484,3.4531,3.4594,3.4661,3.4695,3.4749,3.4804,3.4891,3.4887,3.4927,3.4946,3.4989,3.5055,3.4979,3.4981,3.4992,3.5153,3.5156,3.5169,3.506,3.5062,3.5064,3.5149,0,3.4344,3.4454,3.4484,3.4579,3.4635,3.4652,3.4708,3.4758,3.479,3.4844,3.488,3.4941,3.4931,3.4955,3.4999,3.5038,3.5088,3.5032,3.5113,3.5115,3.5096,3.5184,3.5186,3.5263,3.516,3.5162,3.5163,0,3.4437,3.4494,3.4594,3.466,3.4685,3.4734,3.48,3.4851,3.491,3.4931,3.4977,3.4994,3.5064,3.504,3.5138,3.5099,3.5135,3.516,3.5164,3.5171,3.5141,3.5193,3.5288,3.5299,3.5181,3.518,3.5178,0,3.447,3.4571,3.4645,3.4675,3.4753,3.4788,3.4823,3.488,3.492,3.4979,3.5006,3.5072,3.5109,3.5161,3.5197,3.5176,3.5293,3.5271,3.5313,3.5313,3.5335,3.5333,3.5436,3.536,3.536,3.5359,3.5359,0,3.4544,3.4604,3.4662,3.4707,3.4778,3.4813,3.4883,3.4918,3.497,3.5025,3.5045,3.5096,3.5141,3.5199,3.5229,3.5307,3.5323,3.5343,3.5349,3.534,3.5338,3.5362,3.5358,3.5362,3.5362,3.5361,3.5361,0,3.459,3.4631,3.4713,3.4782,3.4801,3.485,3.4911,3.4957,3.4992,3.5061,3.5079,3.5134,3.5204,3.5246,3.5334,3.5354,3.5441,3.5446,3.542,3.5423,3.5463,3.5459,3.5585,3.5604,3.5516,3.5516,3.5517,0,3.4633,3.4681,3.4756,3.4794,3.483,3.489,3.4932,3.4971,3.5014,3.5088,3.5126,3.5198,3.5256,3.5369,3.5417,3.5487,3.5493,3.5533,3.5503,3.5494,3.5494,3.549,3.5496,3.5537,3.5538,3.5538,3.5539,0,3.4705,3.4725,3.4783,3.485,3.49,3.4954,3.5009,3.504,3.5089,3.5137,3.5209,3.5255,3.5347,3.5419,3.5493,3.5531,3.5544,3.5549,3.5562,3.5552,3.5535,3.5546,3.5433,3.5545,3.5544,3.5544,3.5543,3.5543,3.4752,3.4796,3.4857,3.4923,3.4969,3.5021,3.5069,3.5111,3.5171,3.5248,3.5269,3.5345,3.5409,3.551,3.555,3.5612,3.5606,3.5625,3.563,3.5634,3.5635,3.5527,3.5626,3.5626,3.5626,3.5626,3.5626,0,3.4825,3.4866,3.4927,3.5004,3.5057,3.5066,3.5128,3.5172,3.5239,3.5296,3.5355,3.544,3.5512,3.5568,3.5641,3.5681,3.5689,3.5699,3.5695,3.5705,3.5636,3.5617,3.5691,3.5691,3.5691,3.5691,3.5691,3.5691,3.4869,3.4945,3.4973,3.5074,3.5116,3.519,3.5225,3.5275,3.5321,3.5415,3.5474,3.5511,3.5569,3.5648,3.5715,3.573,3.5756,3.5765,3.5781,3.5716,3.5709,3.5702,3.5684,3.5771,3.5771,3.5844,3.5845,3.5846]},{"header":{"parameterUnit":"m.s-1","parameterCategory":1,"la1":30.2991,"la2":30.254,"lo1":-89.0895,"lo2":-89.0444,"dy":0.0017,"dx":0.0017,"nx":28,"ny":28,"refTime":"2025-07-29T21:00:00:Z","depth":0,"parameterNumber":3,"parameterNumberName":"V-component_of_WINDS"},"data":[0,0,0,0,0,0,0,0,0,0,0,0,0,0,0,0,0,0,0,0,0,0,0,0,0,0,0,0,0,0,0,0,0,0,0,0,0,0,0,0,0,0,0,0,0,0,0,0,0,0,0,0,0,0,0,0,0,0,4.3573,4.3575,0,4.3704,4.3706,4.3707,4.3747,4.3746,4.3746,4.3745,4.3871,4.3875,4.3879,0,0,0,0,0,0,0,0,0,0,0,0,0,4.3351,4.3355,4.3573,4.3575,4.3577,4.3704,4.3706,4.3708,4.3747,4.3746,4.3745,4.3745,4.387,4.3875,4.388,0,0,0,0,0,0,0,0,0,0,0,0,0,4.3461,4.3356,4.3573,4.3612,4.3617,4.3704,4.3706,4.3708,4.3747,4.3746,4.3745,4.3744,4.3869,4.3874,4.388,4.3936,0,0,4.3898,4.3901,0,0,0,0,0,0,0,0,4.3455,4.3469,4.3604,4.3609,4.3615,4.3709,4.3674,4.3784,4.3747,4.3697,4.3745,4.3744,4.3817,4.3828,4.3854,4.3942,4.3947,4.3899,4.3903,4.3905,4.3907,0,0,0,0,0,0,0,4.3447,4.3464,4.3625,4.3606,4.3613,4.3621,4.3635,4.3695,4.3761,4.3702,4.3705,4.372,4.382,4.3848,4.3857,4.3949,4.3899,4.3904,4.3908,4.391,4.4091,4.4092,0,0,0,0,0,0,4.3434,4.3457,4.3621,4.3629,4.3531,4.3625,4.3642,4.3679,4.376,4.3772,4.3721,4.3722,4.3839,4.385,4.3862,4.3934,4.3905,4.3911,4.3914,4.4089,4.4091,4.4092,0,0,0,0,0,0,4.3429,4.3448,4.3615,4.3544,4.3566,4.363,4.3672,4.3682,4.3711,4.3775,4.3786,4.3738,4.3838,4.3853,4.3918,4.3939,4.3913,4.3919,4.4088,4.409,4.4091,4.4077,0,0,0,0,0,0,4.3422,4.3446,4.3469,4.3544,4.357,4.3671,4.3673,4.3686,4.3722,4.3724,4.3794,4.3805,4.3839,4.3909,4.3924,4.3946,4.3923,4.4086,4.4089,4.4091,4.4076,4.4078,4.408,0,0,0,0,0,4.3414,4.3458,4.347,4.349,4.3601,4.3673,4.3687,4.3727,4.3723,4.3746,4.3788,4.3802,4.3934,4.3915,4.3933,4.3957,4.4085,4.4088,4.4091,4.4075,4.4078,4.408,0,0,0,0,0,0,4.3381,4.3469,4.3483,4.3553,4.3605,4.3679,4.371,4.3728,4.3781,4.3781,4.3826,4.3841,4.3903,4.3936,4.3914,4.4016,4.401,4.4016,4.3992,4.3995,4.3997,4.3988,4.3928,0,0,0,0,0,4.3382,4.3435,4.3508,4.3563,4.3589,4.3645,4.3677,4.3704,4.3759,4.3781,4.3827,4.3878,4.3931,4.3965,4.4017,4.4081,4.4097,4.4106,4.4108,4.4109,4.4114,4.4152,4.4157,4.4101,4.4101,4.4101,0,0,4.3384,4.3439,4.3469,4.3557,4.3601,4.3654,4.3663,4.3718,4.3757,4.3788,4.3854,4.3889,4.3949,4.4014,4.4045,4.4043,4.4133,4.4113,4.4113,4.4118,4.4155,4.416,4.4165,4.4103,4.4103,4.4103,0,0,4.3415,4.3462,4.3513,4.3558,4.3625,4.3662,4.3674,4.3746,4.3772,4.3839,4.3864,4.391,4.4,4.4042,4.4075,4.4124,4.4139,4.4139,4.415,4.4186,4.419,4.4194,4.4212,4.4218,4.4144,4.4144,4.4144,0,4.3408,4.3491,4.3536,4.3591,4.3629,4.3663,4.3715,4.3755,4.3834,4.3859,4.3857,4.3972,4.4015,4.4091,4.4103,4.4128,4.4143,4.4131,4.4186,4.4191,4.4195,4.4213,4.422,4.4143,4.4143,4.4143,4.4143,0,4.348,4.3537,4.357,4.365,4.3692,4.3744,4.3796,4.3832,4.3855,4.3892,4.3959,4.4012,4.4076,4.4096,4.4117,4.4175,4.4173,4.4178,4.4173,4.4199,4.4217,4.4224,4.4143,4.4143,4.4143,4.4143,0,0,4.3493,4.3599,4.361,4.3648,4.3725,4.3769,4.3823,4.3889,4.3919,4.3973,4.4019,4.4095,4.4101,4.4139,4.4166,4.4197,4.4234,4.4199,4.4201,4.4204,4.4301,4.4297,4.4305,4.4244,4.4246,4.4247,4.4296,0,4.3535,4.3636,4.3678,4.3759,4.3812,4.3846,4.3893,4.3944,4.398,4.4029,4.4068,4.4122,4.4125,4.4148,4.4181,4.4222,4.4254,4.4219,4.4286,4.4288,4.4272,4.4314,4.431,4.4354,4.4303,4.4305,4.4305,0,4.3597,4.3655,4.3742,4.3815,4.3838,4.388,4.3945,4.3991,4.405,4.4074,4.4117,4.4143,4.4199,4.4191,4.4269,4.4244,4.4274,4.4299,4.4301,4.431,4.4299,4.4324,4.4369,4.4376,4.4316,4.4316,4.4315,0,4.3599,4.3698,4.3763,4.3794,4.388,4.3909,4.3946,4.4004,4.4042,4.4097,4.4121,4.4181,4.4214,4.4258,4.4299,4.4289,4.4374,4.4368,4.4395,4.4394,4.4411,4.441,4.4463,4.4429,4.4429,4.4429,4.4428,0,4.3641,4.3693,4.3766,4.3806,4.3865,4.3913,4.3969,4.4008,4.406,4.4107,4.4138,4.4181,4.4232,4.4281,4.4313,4.4373,4.4387,4.4407,4.4415,4.4406,4.4403,4.4426,4.4424,4.443,4.443,4.443,4.4429,0,4.3654,4.3704,4.3778,4.3855,4.3875,4.3916,4.398,4.402,4.4058,4.4117,4.4134,4.4192,4.4252,4.4298,4.4374,4.4395,4.446,4.4467,4.4441,4.4445,4.447,4.4467,4.454,4.4552,4.4509,4.4509,4.4509,0,4.3678,4.3719,4.3802,4.3837,4.3875,4.393,4.397,4.4018,4.4057,4.4128,4.4159,4.4222,4.4274,4.4368,4.4416,4.4475,4.4485,4.4506,4.4493,4.4483,4.4486,4.4484,4.4489,4.4508,4.4508,4.4508,4.4508,0,4.3716,4.374,4.3796,4.3863,4.3909,4.3963,4.4017,4.4043,4.41,4.4142,4.4206,4.4247,4.4327,4.4388,4.4453,4.4488,4.4508,4.4512,4.4522,4.4512,4.4496,4.4506,4.4446,4.451,4.451,4.451,4.451,4.451,4.3736,4.3775,4.384,4.3902,4.3949,4.3999,4.4041,4.4085,4.414,4.4211,4.4235,4.43,4.4358,4.4447,4.4483,4.4534,4.4534,4.4547,4.4551,4.4554,4.4554,4.4487,4.4545,4.4545,4.4545,4.4545,4.4545,0,4.3776,4.382,4.3878,4.3954,4.4003,4.402,4.4081,4.412,4.4178,4.4232,4.4285,4.4358,4.4418,4.4472,4.4534,4.4564,4.4575,4.4579,4.4577,4.4586,4.4549,4.4536,4.4569,4.4569,4.4569,4.4569,4.4569,4.4569,4.3803,4.3871,4.3903,4.3993,4.4036,4.4103,4.4137,4.4183,4.4227,4.4308,4.4359,4.4395,4.4449,4.4516,4.4572,4.4586,4.4607,4.461,4.4626,4.4591,4.4588,4.4585,4.4573,4.4614,4.4614,4.4659,4.4659,4.4659]}]]